Weather History for Langdon, ND

Change the Weather History Date:

Saturday, January 19, 2013

  Actual Average (KDVL) Record (KDVL)
Temperature  
Mean Temperature 2 °F -  
Max Temperature 19 °F 17 °F 42 °F (1991)
Min Temperature -16 °F -1 °F -31 °F (1985)
Degree Days  
Heating Degree Days 64    
Moisture  
Dew Point -4 °F    
Average Humidity 84    
Maximum Humidity 100    
Minimum Humidity 71    
Precipitation  
Precipitation 0.05 in - - ()
Sea Level Pressure  
Sea Level Pressure 29.97 in    
Wind  
Wind Speed 18 mph (NW)    
Max Wind Speed 38 mph    
Max Gust Speed 45 mph    
Visibility 6 miles    
Events Fog , Rain , Snow    
Averages and records for this station are not official NWS values.
T = Trace of Precipitation, MM = Missing Value Source: NWS Daily Summary

Daily Weather History Graph

Daily Weather History Graph

Search for Another Location

Airport:

Trip Planner

Search our weather history database for the weather conditions in past years. The results will help you decide how hot, cold, wet, or windy it might be!

Date:

Astronomy

Jan. 19, 2013 Rise Set
Actual Time 8:17 AM CST 5:11 PM CST
Civil Twilight 7:42 AM CST 5:46 PM CST
Nautical Twilight 7:03 AM CST 6:25 PM CST
Astronomical Twilight 6:26 AM CST 7:03 PM CST
Moon 11:44 AM CST (1/19) 1:46 AM CST (1/19)
Length of Visible Light 10h 04m
Length of Day
8h 53m
First Quarter, 57% of the Moon is Illuminated
Jan 19
First Quarter
Jan 26
Full
Feb 3
Last Quarter
Feb 10
New
Feb 17
First Quarter

Hourly Weather History & Observations

Time (CST) Temp. Windchill Dew Point Humidity Pressure Visibility Wind Dir Wind Speed Gust Speed Precip Events Conditions
12:15 AM 10.4 °F -2.4 °F 10.4 °F 100% 29.59 in 10.0 mi South 9.2 mph - N/A   Overcast
12:35 AM 10.4 °F -4.1 °F 8.6 °F 92% 29.58 in 10.0 mi South 11.5 mph - N/A   Scattered Clouds
12:55 AM 10.4 °F -3.3 °F 8.6 °F 92% 29.57 in 6.0 mi South 10.4 mph - N/A   Mostly Cloudy
1:15 AM 10.4 °F -4.8 °F 10.4 °F 100% 29.57 in 3.0 mi SSW 12.7 mph - N/A   Overcast
1:35 AM 10.4 °F -6.6 °F 8.6 °F 92% 29.57 in 8.0 mi SSW 16.1 mph - N/A   Scattered Clouds
1:55 AM 10.4 °F -6.0 °F 10.4 °F 100% 29.57 in 5.0 mi SW 15.0 mph - N/A   Partly Cloudy
2:15 AM 12.2 °F -5.3 °F 10.4 °F 92% 29.57 in 8.0 mi SW 18.4 mph - N/A   Partly Cloudy
2:35 AM 14.0 °F -3.4 °F 12.2 °F 93% 29.57 in 4.0 mi WSW 19.6 mph - N/A   Partly Cloudy
2:55 AM 14.0 °F -1.4 °F 12.2 °F 93% 29.57 in 7.0 mi WSW 15.0 mph - N/A   Clear
3:15 AM 15.8 °F 0.9 °F 15.8 °F 100% 29.59 in 7.0 mi West 15.0 mph - N/A   Clear
3:35 AM 15.8 °F 2.1 °F 15.8 °F 100% 29.59 in 10.0 mi WNW 12.7 mph - N/A   Clear
3:55 AM 19.4 °F 4.5 °F 19.4 °F 100% 29.61 in 10.0 mi WNW 17.3 mph - N/A   Mostly Cloudy
4:15 AM 19.4 °F 4.5 °F 19.4 °F 100% 29.61 in 9.0 mi NW 17.3 mph 24.2 mph N/A   Overcast
4:35 AM 19.4 °F 2.1 °F 19.4 °F 100% 29.61 in 6.0 mi NW 24.2 mph 28.8 mph N/A   Overcast
4:55 AM 17.6 °F 0.9 °F 15.8 °F 93% 29.63 in 3.0 mi NW 20.7 mph 34.5 mph N/A   Overcast
5:15 AM 14.0 °F -5.1 °F 14.0 °F 100% 29.64 in 3.0 mi NNW 24.2 mph 28.8 mph N/A   Overcast
5:35 AM 12.2 °F -6.7 °F 10.4 °F 92% 29.66 in 3.0 mi NW 21.9 mph 28.8 mph N/A Snow Light Snow
5:55 AM 10.4 °F -11.0 °F 8.6 °F 92% 29.68 in 2.0 mi NNW 27.6 mph 33.4 mph N/A Snow Light Snow
7:15 AM 5.0 °F -19.4 °F 1.4 °F 85% 29.75 in 1.2 mi NNW 31.1 mph 35.7 mph N/A Snow Light Snow
8:15 AM 3.2 °F -19.5 °F -0.4 °F 85% 29.79 in 1.0 mi NNW 24.2 mph - N/A   Overcast
8:35 AM 3.2 °F -18.6 °F -0.4 °F 85% 29.82 in 2.0 mi NNW 21.9 mph 32.2 mph N/A   Overcast
9:55 AM 1.4 °F -23.9 °F -0.4 °F 92% 29.88 in 0.2 mi NW 29.9 mph 40.3 mph N/A Rain Light Freezing Rain
10:15 AM 1.4 °F -22.3 °F -2.2 °F 85% 29.90 in 0.2 mi NNW 25.3 mph 35.7 mph N/A Rain Light Freezing Rain
10:35 AM -0.4 °F -24.7 °F -2.2 °F 92% 29.92 in 0.5 mi NNW 25.3 mph 33.4 mph 0.01 in Snow Snow
10:55 AM -0.4 °F -24.3 °F -4.0 °F 85% 29.94 in 0.8 mi NNW 24.2 mph 31.1 mph 0.01 in Rain Light Freezing Rain
11:15 AM -0.4 °F -24.7 °F -5.8 °F 78% 29.96 in 0.8 mi NNW 25.3 mph 34.5 mph N/A   Haze
11:35 AM -2.2 °F -28.4 °F -7.6 °F 78% 29.97 in 0.2 mi NNW 28.8 mph 39.1 mph N/A   Haze
11:55 AM -2.2 °F -28.4 °F -7.6 °F 78% 29.98 in 0.2 mi NNW 28.8 mph 39.1 mph N/A Rain Light Freezing Rain
12:15 PM -2.2 °F -29.6 °F -7.6 °F 78% 29.98 in 0.2 mi NNW 32.2 mph 39.1 mph N/A Rain Light Freezing Rain
12:35 PM -2.2 °F -30.6 °F -7.6 °F 78% 29.99 in 0.2 mi NNW 35.7 mph 41.4 mph N/A Rain Light Freezing Rain
12:55 PM -2.2 °F -30.3 °F -7.6 °F 78% 30.01 in 0.2 mi NNW 34.5 mph 40.3 mph 0.02 in Rain Light Freezing Rain
1:15 PM -2.2 °F -31.3 °F -7.6 °F 78% 30.02 in 0.2 mi NNW 38.0 mph 44.9 mph N/A Rain Light Freezing Rain
1:35 PM -2.2 °F -29.2 °F -7.6 °F 78% 30.04 in 0.2 mi NNW 31.1 mph 41.4 mph 0.02 in Rain Light Freezing Rain
1:55 PM -2.2 °F -29.2 °F -7.6 °F 78% 30.06 in 0.2 mi NNW 31.1 mph 34.5 mph 0.02 in Rain Light Freezing Rain
2:15 PM -2.2 °F -28.4 °F -7.6 °F 78% 30.08 in 0.2 mi NNW 28.8 mph 39.1 mph N/A Rain Light Freezing Rain
2:35 PM -4.0 °F -30.9 °F -7.6 °F 85% 30.09 in 0.5 mi NNW 28.8 mph 34.5 mph N/A Fog Light Freezing Fog
2:55 PM -2.2 °F -28.4 °F -7.6 °F 78% 30.11 in 0.5 mi NNW 28.8 mph 36.8 mph N/A   Haze
3:15 PM -2.2 °F -29.9 °F -9.4 °F 71% 30.14 in 0.8 mi NNW 33.4 mph 40.3 mph N/A   Haze
3:35 PM -2.2 °F -27.1 °F -9.4 °F 71% 30.15 in 1.8 mi NNW 25.3 mph 32.2 mph N/A   Haze
3:55 PM -4.0 °F -29.6 °F -9.4 °F 78% 30.17 in 0.8 mi NNW 25.3 mph 32.2 mph N/A   Haze
4:15 PM -4.0 °F -27.6 °F -9.4 °F 78% 30.19 in 4.0 mi NNW 20.7 mph 27.6 mph N/A   Haze
4:35 PM -4.0 °F -27.6 °F -9.4 °F 78% 30.21 in 8.0 mi NNW 20.7 mph - N/A   Partly Cloudy
4:55 PM -4.0 °F -25.2 °F -11.2 °F 71% 30.21 in 10.0 mi NNW 16.1 mph - N/A   Clear
5:15 PM -5.8 °F -29.4 °F -11.2 °F 77% 30.22 in 10.0 mi NW 19.6 mph - N/A   Clear
5:35 PM -5.8 °F -29.4 °F -11.2 °F 77% 30.22 in 9.0 mi NW 19.6 mph - N/A   Clear
5:55 PM -7.6 °F -31.1 °F -13.0 °F 77% 30.23 in 10.0 mi NW 18.4 mph - N/A   Clear
6:15 PM -7.6 °F -32.3 °F -13.0 °F 77% 30.24 in 10.0 mi NW 20.7 mph - N/A   Clear
6:35 PM -7.6 °F -31.1 °F -13.0 °F 77% 30.24 in 10.0 mi NW 18.4 mph 26.5 mph N/A   Clear
6:55 PM -7.6 °F -32.3 °F -13.0 °F 77% 30.23 in 10.0 mi NNW 20.7 mph - N/A   Clear
7:15 PM -7.6 °F -29.1 °F -13.0 °F 77% 30.24 in 10.0 mi NW 15.0 mph - N/A   Clear
7:35 PM -9.4 °F -31.4 °F -13.0 °F 84% 30.24 in 10.0 mi NW 15.0 mph - N/A   Clear
7:55 PM -9.4 °F -30.6 °F -14.8 °F 77% 30.24 in 10.0 mi NW 13.8 mph - N/A   Clear
8:15 PM -9.4 °F -30.6 °F -14.8 °F 77% 30.25 in 10.0 mi NNW 13.8 mph - N/A   Clear
8:35 PM -11.2 °F -31.1 °F -16.6 °F 77% 30.25 in 10.0 mi NW 11.5 mph - N/A   Clear
8:55 PM -11.2 °F -32.1 °F -16.6 °F 77% 30.25 in 10.0 mi NW 12.7 mph - N/A   Clear
9:15 PM -11.2 °F -32.1 °F -16.6 °F 77% 30.25 in 10.0 mi NW 12.7 mph - N/A   Clear
9:35 PM -11.2 °F -30.1 °F -16.6 °F 77% 30.25 in 10.0 mi NW 10.4 mph - N/A   Clear
9:55 PM - - - N/A% 30.26 in 10.0 mi NW 9.2 mph - N/A   Clear
10:15 PM -13.0 °F -31.3 °F -18.4 °F 77% 30.25 in 10.0 mi WNW 9.2 mph - N/A   Clear
10:35 PM -14.8 °F -32.2 °F -20.2 °F 77% 30.26 in 10.0 mi WNW 8.1 mph - N/A   Clear
10:55 PM -14.8 °F -33.5 °F -20.2 °F 77% 30.25 in 10.0 mi WNW 9.2 mph - N/A   Clear
11:15 PM -16.6 °F -34.4 °F -22.0 °F 76% 30.26 in 10.0 mi WNW 8.1 mph - N/A   Clear
11:35 PM -16.6 °F -35.7 °F -22.0 °F 76% 30.24 in 10.0 mi West 9.2 mph - N/A   Clear
11:55 PM -16.6 °F -36.8 °F -20.2 °F 84% 30.24 in 10.0 mi West 10.4 mph - N/A   Clear